User: anonymous   Login
Location: Unspecified
(0.0000°N, 0.0000°E)
Time: 20:48:57
(UTC+00:00)
Language:

XW-2D - Orbit

View from above orbital plane
View from above orbital plane
View from above satellite
View from above satellite

Ground track
Ground track

The orbit data is extracted from the following two-line orbital elements,

1 40907U 15049J   22268.54317189  .00006246  00000-0  28630-3 0  9997
2 40907  97.4964 271.3059 0013192  14.5247 100.8733 15.20744138388171
Epoch (UTC): 25 September 2022 13:02:10
Eccentricity: 0.0013192
inclination: 97.4964°
perigee height: 494 km
apogee height: 512 km
right ascension of ascending node: 271.3059°
argument of perigee: 14.5247°
revolutions per day: 15.20744138
mean anomaly at epoch: 100.8733°
orbit number at epoch: 38817

The dashed part of the orbit path shows where the satellite is in the earth's shadow,  

DLR